GW2294 Weather Reports


time (UTC)temp
C
wind
direction
speed
KPH
gust
KPH
rain 1hr
cm
rain 24hr
cm
rain mn
cm
humidity
%
barometer
mb
20260502231708 12 201 0.0 0.0 0.00 0.00 0.00 82 1017.0
20260502231655 12 201 0.0 0.0 0.00 0.00 0.00 83 1017.1
20260502230710 12 201 0.0 0.0 0.00 0.00 0.00 83 1017.1
20260502230209 12 202 0.0 0.0 0.00 0.00 0.00 84 1017.1
20260502225708 12 202 0.0 0.0 0.00 0.00 0.00 84 1017.0
20260502225205 12 202 0.0 0.0 0.00 0.00 0.00 83 1017.1
20260502224706 12 202 0.0 0.0 0.00 0.00 0.00 83 1017.1
20260502224206 12 202 0.0 0.0 0.00 0.00 0.00 83 1017.1
20260502223703 12 201 0.0 0.0 0.00 0.00 0.00 83 1017.2
20260502223201 12 201 0.0 0.0 0.00 0.00 0.00 82 1017.1
20260502223147 13 201 0.0 0.0 0.00 0.00 0.00 82 1017.2
20260502222158 13 201 0.0 0.0 0.00 0.00 0.00 82 1017.2
20260502221700 13 201 0.0 0.0 0.00 0.00 0.00 81 1017.2
20260502221649 13 201 0.0 0.0 0.00 0.00 0.00 81 1017.2
20260502220700 13 201 0.0 0.0 0.00 0.00 0.00 81 1017.2
20260502220158 13 201 0.0 0.0 0.00 0.00 0.00 80 1017.4
20260502215657 13 201 0.0 0.0 0.00 0.00 0.00 80 1017.2
20260502215151 13 201 0.0 0.0 0.00 0.00 0.00 79 1017.2
20260502214644 13 201 0.0 0.0 0.00 0.00 0.00 78 1017.2
20260502214139 14 201 0.0 0.0 0.00 0.00 0.00 77 1017.4
20260502213853 14 201 0.0 0.0 0.00 0.00 0.00 78 1017.4
20260502213753 14 201 0.0 0.0 0.00 0.00 0.00 77 1017.2
20260502213348 14 201 0.0 0.0 0.00 0.00 0.00 77 1017.2
20260502212116 15 201 0.0 0.0 0.00 0.00 0.00 77 1017.2
20260502211609 15 201 0.0 0.0 0.00 0.00 0.00 77 1017.2
20260502211103 15 201 0.0 0.0 0.00 0.00 0.00 76 1017.2
20260502211039 15 201 0.0 0.0 0.00 0.00 0.00 76 1017.2
20260502210051 15 201 0.0 0.0 0.00 0.00 0.00 76 1017.2
20260502205545 15 201 0.0 0.0 0.00 0.00 0.00 75 1017.4
20260502205039 15 201 0.0 0.0 0.00 0.00 0.00 75 1017.1
20260502204533 15 201 0.0 0.0 0.00 0.00 0.00 74 1017.2
20260502204027 15 201 0.0 0.0 0.00 0.00 0.00 74 1017.4
20260502203521 15 201 0.0 0.0 0.00 0.00 0.00 74 1017.2
20260502203503 16 201 0.0 0.0 0.00 0.00 0.00 73 1017.1
20260502202509 16 201 0.0 0.0 0.00 0.00 0.00 73 1017.1
20260502202009 16 201 0.0 0.0 0.00 0.00 0.00 72 1017.1
20260502201506 16 201 0.0 0.0 0.00 0.00 0.00 71 1017.0
20260502201006 16 201 0.0 0.0 0.00 0.00 0.00 71 1017.0
20260502200508 16 201 0.0 0.0 0.00 0.00 0.00 70 1016.9
20260502200007 17 201 0.0 1.6 0.00 0.00 0.00 69 1016.8
20260502195506 17 201 0.0 1.6 0.00 0.00 0.00 68 1016.7
20260502195007 17 201 0.0 1.6 0.00 0.00 0.00 68 1016.8
20260502194507 17 201 0.0 3.2 0.00 0.00 0.00 67 1016.7
20260502194455 17 201 0.0 3.2 0.00 0.00 0.00 67 1016.6
20260502193506 17 201 0.0 0.0 0.00 0.00 0.00 67 1016.6
20260502193007 18 201 0.0 3.2 0.00 0.00 0.00 66 1016.5
20260502192506 18 201 0.0 3.2 0.00 0.00 0.00 65 1016.5
20260502192006 18 269 0.0 1.6 0.00 0.00 0.00 65 1016.5
20260502191505 18 269 0.0 0.0 0.00 0.00 0.00 64 1016.5
20260502191006 18 269 0.0 3.2 0.00 0.00 0.00 64 1016.5
20260502190507 19 269 0.0 3.2 0.00 0.00 0.00 63 1016.4
20260502190008 19 284 0.0 1.6 0.00 0.00 0.00 62 1016.4
20260502185502 20 284 0.0 1.6 0.00 0.00 0.00 62 1016.6
20260502184956 20 284 0.0 1.6 0.00 0.00 0.00 60 1016.4
20260502184450 20 284 0.0 3.2 0.00 0.00 0.00 60 1016.4
20260502183944 20 284 0.0 3.2 0.00 0.00 0.00 58 1016.4
20260502183438 21 288 0.0 1.6 0.00 0.00 0.00 58 1016.3
20260502183409 21 287 0.0 1.6 0.00 0.00 0.00 55 1016.3
20260502182426 21 288 0.0 1.6 0.00 0.00 0.00 54 1016.3
20260502181920 21 287 0.0 1.6 0.00 0.00 0.00 54 1016.2
20260502181414 21 288 0.0 1.6 0.00 0.00 0.00 53 1016.2
20260502180909 22 288 0.0 1.6 0.00 0.00 0.00 54 1016.1
20260502180847 22 288 0.0 1.6 0.00 0.00 0.00 53 1016.1
20260502164325 24 43 0.0 1.6 0.00 0.00 0.00 44 1015.7
20260502163825 24 43 0.0 3.2 0.00 0.00 0.00 45 1015.8
20260502163323 24 43 0.0 3.2 0.00 0.00 0.00 42 1015.8
20260502162824 24 43 0.0 3.2 0.00 0.00 0.00 45 1015.8
20260502162320 24 36 0.0 8.0 0.00 0.00 0.00 44 1015.8
20260502161821 24 36 1.6 8.0 0.00 0.00 0.00 42 1015.9
20260502161318 25 36 0.0 6.4 0.00 0.00 0.00 42 1016.0
20260502160816 25 326 0.0 6.4 0.00 0.00 0.00 40 1016.0
20260502160315 25 323 0.0 6.4 0.00 0.00 0.00 40 1016.1
20260502160257 25 27 1.6 11.3 0.00 0.00 0.00 40 1016.2
20260502151812 26 28 3.2 11.3 0.00 0.00 0.00 38 1016.5
20260502151311 26 78 3.2 12.9 0.00 0.00 0.00 37 1016.5
20260502150813 26 23 1.6 12.9 0.00 0.00 0.00 38 1016.4
20260502150313 26 63 1.6 11.3 0.00 0.00 0.00 37 1016.5
20260502130312 26 49 1.6 9.7 0.00 0.00 0.00 41 1018.3
20260502130252 26 355 1.6 8.0 0.00 0.00 0.00 41 1018.4
20260502123758 25 31 0.0 9.7 0.00 0.00 0.00 43 1018.7
20260502123252 25 44 1.6 11.3 0.00 0.00 0.00 42 1018.8
20260502122746 25 309 3.2 11.3 0.00 0.00 0.00 40 1018.8
20260502122736 25 36 1.6 11.3 0.00 0.00 0.00 43 1019.0
20260502121734 25 30 1.6 11.3 0.00 0.00 0.00 44 1018.9
20260502121228 25 47 3.2 12.9 0.00 0.00 0.00 43 1019.0
20260502120722 25 26 3.2 12.9 0.00 0.00 0.00 41 1019.1
20260502120704 25 51 0.0 11.3 0.00 0.00 0.00 44 1019.1
20260502115710 25 280 0.0 3.2 0.00 0.00 0.00 43 1019.2
20260502115204 25 277 1.6 12.9 0.00 0.00 0.00 42 1019.3
20260502114658 25 257 3.2 14.5 0.00 0.00 0.00 46 1019.3
20260502114152 25 84 1.6 14.5 0.00 0.00 0.00 44 1019.5
20260502113646 25 37 1.6 8.0 0.00 0.00 0.00 44 1019.5
20260502113140 24 34 1.6 8.0 0.00 0.00 0.00 44 1019.6
20260502112633 25 40 1.6 11.3 0.00 0.00 0.00 44 1019.7
20260502112128 24 35 1.6 12.9 0.00 0.00 0.00 47 1019.7
20260502111622 24 30 1.6 12.9 0.00 0.00 0.00 45 1019.8
20260502111116 24 281 1.6 8.0 0.00 0.00 0.00 46 1019.9
20260502110610 24 34 1.6 12.9 0.00 0.00 0.00 51 1020.1
20260502110104 24 32 3.2 12.9 0.00 0.00 0.00 47 1020.1
20260502105558 23 49 3.2 12.9 0.00 0.00 0.00 49 1020.2
20260502105542 24 36 1.6 12.9 0.00 0.00 0.00 47 1020.3
20260502104546 23 284 1.6 11.3 0.00 0.00 0.00 47 1020.3
20260502104040 23 33 1.6 11.3 0.00 0.00 0.00 48 1020.4
20260502103533 23 36 0.0 8.0 0.00 0.00 0.00 49 1020.4
20260502103029 23 36 1.6 8.0 0.00 0.00 0.00 49 1020.6
20260502102742 23 293 1.6 6.4 0.00 0.00 0.00 49 1020.6
20260502102016 23 41 1.6 9.7 0.00 0.00 0.00 47 1020.8
20260502101510 23 55 1.6 8.0 0.00 0.00 0.00 47 1020.9
20260502101004 23 36 1.6 8.0 0.00 0.00 0.00 50 1020.9
20260502100458 23 25 0.0 6.4 0.00 0.00 0.00 48 1021.0
20260502100444 22 29 0.0 6.4 0.00 0.00 0.00 50 1021.1
20260502091358 20 355 0.0 0.0 0.00 0.00 0.00 49 1021.8
20260502090851 20 355 0.0 0.0 0.00 0.00 0.00 51 1021.8
20260502090346 20 355 0.0 0.0 0.00 0.00 0.00 48 1021.8
20260502071140 13 201 0.0 0.0 0.00 0.00 0.00 66 1022.8
20260502071118 12 201 0.0 0.0 0.00 0.00 0.00 69 1022.8
20260502070135 12 201 0.0 0.0 0.00 0.00 0.00 72 1022.8
20260502070118 11 201 0.0 0.0 0.00 0.00 0.00 74 1022.9
20260502065136 10 201 0.0 0.0 0.00 0.00 0.00 76 1022.9
20260502064634 10 201 0.0 0.0 0.00 0.00 0.00 76 1022.9
20260502064131 10 201 0.0 0.0 0.00 0.00 0.00 80 1022.9
20260502063631 9 201 0.0 0.0 0.00 0.00 0.00 81 1022.8
20260502063129 8 201 0.0 0.0 0.00 0.00 0.00 82 1022.8
20260502062934 8 201 0.0 0.0 0.00 0.00 0.00 82 1022.9
20260502062847 8 201 0.0 0.0 0.00 0.00 0.00 83 1022.8
20260502061623 8 201 0.0 0.0 0.00 0.00 0.00 82 1022.8
20260502061122 7 201 0.0 0.0 0.00 0.00 0.00 83 1022.9
20260502060622 7 201 0.0 0.0 0.00 0.00 0.00 83 1022.8
20260502060122 7 201 0.0 0.0 0.00 0.00 0.00 85 1022.9
20260502060110 7 201 0.0 0.0 0.00 0.00 0.00 85 1023.0
20260502055121 6 201 0.0 0.0 0.00 0.00 0.00 86 1023.0
20260502055111 6 201 0.0 0.0 0.00 0.00 0.00 86 1022.9
20260502054117 6 201 0.0 0.0 0.00 0.00 0.00 86 1022.9
20260502053617 6 201 0.0 0.0 0.00 0.00 0.00 86 1022.9
20260502053116 6 201 0.0 0.0 0.00 0.00 0.00 86 1023.0
20260502052615 6 201 0.0 0.0 0.00 0.00 0.00 86 1022.9
20260502052118 6 201 0.0 0.0 0.00 0.00 0.00 86 1022.9
20260502052114 6 201 0.0 0.0 0.00 0.00 0.00 87 1022.9
20260502051115 6 201 0.0 0.0 0.00 0.00 0.00 86 1022.9
20260502050614 6 201 0.0 0.0 0.00 0.00 0.00 86 1022.8
20260502050116 6 201 0.0 0.0 0.00 0.00 0.00 86 1022.8
20260502045611 6 201 0.0 0.0 0.00 0.00 0.00 86 1022.8
20260502045111 6 201 0.0 0.0 0.00 0.00 0.00 86 1022.6
20260502044611 6 201 0.0 0.0 0.00 0.00 0.00 86 1022.6
20260502044111 6 201 0.0 0.0 0.00 0.00 0.00 86 1022.8
20260502043610 6 201 0.0 0.0 0.00 0.00 0.00 86 1022.8
20260502043118 6 201 0.0 0.0 0.00 0.00 0.00 86 1022.6
20260502042611 6 201 0.0 0.0 0.00 0.00 0.00 86 1022.6
20260502042111 6 201 0.0 0.0 0.00 0.00 0.00 85 1022.8
20260502041612 6 201 0.0 0.0 0.00 0.00 0.00 86 1022.8
20260502041111 6 201 0.0 0.0 0.00 0.00 0.00 86 1022.8
20260502040612 6 201 0.0 0.0 0.00 0.00 0.00 86 1022.6
20260502040110 6 201 0.0 0.0 0.00 0.00 0.00 86 1022.6
20260502035611 6 201 0.0 0.0 0.00 0.00 0.00 86 1022.6
20260502035112 6 201 0.0 0.0 0.00 0.00 0.00 86 1022.6
20260502035058 6 201 0.0 0.0 0.00 0.00 0.00 85 1022.6
20260502034111 6 201 0.0 0.0 0.00 0.00 0.00 86 1022.6
20260502033611 6 201 0.0 0.0 0.00 0.00 0.00 86 1022.5
20260502033109 6 201 0.0 0.0 0.00 0.00 0.00 86 1022.5
20260502033047 6 201 0.0 0.0 0.00 0.00 0.00 86 1022.6
20260502032057 6 201 0.0 0.0 0.00 0.00 0.00 85 1022.6
20260502031550 6 201 0.0 0.0 0.00 0.00 0.00 85 1022.6
20260502031045 6 201 0.0 0.0 0.00 0.00 0.00 85 1022.6
20260502030539 6 201 0.0 0.0 0.00 0.00 0.00 85 1022.6
20260502030033 6 201 0.0 0.0 0.00 0.00 0.00 84 1022.8
20260502025527 6 201 0.0 0.0 0.00 0.00 0.00 84 1022.6
20260502025021 6 201 0.0 0.0 0.00 0.00 0.00 84 1022.6
20260502024515 6 202 0.0 0.0 0.00 0.00 0.00 84 1022.6
20260502024009 6 202 0.0 0.0 0.00 0.00 0.00 84 1022.6
20260502023503 6 201 0.0 0.0 0.00 0.00 0.00 85 1022.6
20260502023443 6 200 0.0 0.0 0.00 0.00 0.00 84 1022.8
20260502022451 6 200 0.0 0.0 0.00 0.00 0.00 84 1022.8
20260502022435 6 201 0.0 0.0 0.00 0.00 0.00 84 1022.9
20260502021439 6 201 0.0 0.0 0.00 0.00 0.00 84 1022.8
20260502020933 6 201 0.0 0.0 0.00 0.00 0.00 84 1022.6
20260502020427 6 201 0.0 0.0 0.00 0.00 0.00 84 1022.5
20260502015921 6 201 0.0 0.0 0.00 0.00 0.00 84 1022.6
20260502015415 6 201 0.0 0.0 0.00 0.00 0.00 83 1022.5
20260502014909 6 201 0.0 0.0 0.00 0.00 0.00 83 1022.5
20260502014403 6 201 0.0 0.0 0.00 0.00 0.00 83 1022.5
20260502013857 6 201 0.0 0.0 0.00 0.00 0.00 82 1022.6
20260502013841 6 201 0.0 0.0 0.00 0.00 0.00 82 1022.8
20260502012845 6 201 0.0 0.0 0.00 0.00 0.00 83 1022.6
20260502012339 7 201 0.0 0.0 0.00 0.00 0.00 82 1022.6
20260502011832 7 201 0.0 0.0 0.00 0.00 0.00 82 1022.8
20260502011326 7 201 0.0 0.0 0.00 0.00 0.00 81 1022.6
20260502010821 7 201 0.0 0.0 0.00 0.00 0.00 81 1022.8
20260502010315 7 201 0.0 0.0 0.00 0.00 0.00 82 1022.8
20260502010256 7 201 0.0 0.0 0.00 0.00 0.00 82 1022.8
20260502005305 7 201 0.0 0.0 0.00 0.00 0.00 82 1022.8
20260502005241 7 201 0.0 0.0 0.00 0.00 0.00 81 1022.9
20260502004251 7 201 0.0 0.0 0.00 0.00 0.00 81 1022.9
20260502003745 7 201 0.0 0.0 0.00 0.00 0.00 81 1022.9
20260502003554 7 200 0.0 0.0 0.00 0.00 0.00 81 1022.8
20260502003504 7 200 0.0 0.0 0.00 0.00 0.00 81 1022.9
20260502002228 7 200 0.0 0.0 0.00 0.00 0.00 81 1022.9
20260502001721 7 200 0.0 0.0 0.00 0.00 0.00 81 1022.9
20260502001215 7 200 0.0 0.0 0.00 0.00 0.00 81 1022.8
20260502000709 7 200 0.0 0.0 0.00 0.00 0.00 80 1022.9
20260502000204 7 200 0.0 0.0 0.00 0.00 0.00 80 1022.9
20260501235657 7 200 0.0 0.0 0.00 0.00 0.00 80 1023.0
20260501235151 7 200 0.0 0.0 0.00 0.00 0.00 79 1023.1
20260501234645 7 200 0.0 0.0 0.00 0.00 0.00 78 1023.1
20260501234139 8 200 0.0 0.0 0.00 0.00 0.00 78 1023.0
20260501233633 8 200 0.0 0.0 0.00 0.00 0.00 78 1023.0
20260501233614 8 200 0.0 0.0 0.00 0.00 0.00 79 1023.0
20260501232620 8 201 0.0 0.0 0.00 0.00 0.00 78 1023.1
20260501232115 8 201 0.0 0.0 0.00 0.00 0.00 78 1023.0